Pleasanton, CA

7:12 AM PDT on September 28, 2016 (GMT -0700)
Livermore Municipal

Weather History for KLVK - December, 2013

Change the Weather History Date:

Wednesday, December 25, 2013

  Actual Average Record
Temperature  
Mean Temperature 50 °F 46 °F  
Max Temperature 64 °F 55 °F 78 °F (1946)
Min Temperature 36 °F 37 °F 21 °F (1963)
Degree Days  
Heating Degree Days 15 19  
Month to date heating degree days 447 447  
Since 1 July heating degree days 765 919  
Cooling Degree Days 0 0  
Month to date cooling degree days 0 0  
Year to date cooling degree days 1039 830  
Moisture  
Dew Point 36 °F    
Average Humidity 62    
Maximum Humidity 85    
Minimum Humidity 39    
Precipitation  
Precipitation 0.00 in 0.11 in 0.94 in (1971)
Month to date precipitation 0.39 2.08  
Year to date precipitation 4.50 15.11  
Since 1 July precipitation 2.38  
Sea Level Pressure  
Sea Level Pressure 30.25 in    
Wind  
Wind Speed 4 mph (ENE)    
Max Wind Speed 16 mph    
Max Gust Speed 21 mph    
Visibility 8 miles    
Events      
T = Trace of Precipitation, MM = Missing Value Source: NWS Daily Summary

Daily Weather History Graph

Daily Weather History Graph

Search for Another Location

Airport or City:

Trip Planner

Search our weather history database for the weather conditions in past years. The results will help you decide how hot, cold, wet, or windy it might be!

Date:

Astronomy

Dec. 25, 2013 Rise Set
Actual Time 7:20 AM PST 4:54 PM PST
Civil Twilight 6:51 AM PST 5:23 PM PST
Nautical Twilight 6:18 AM PST 5:56 PM PST
Astronomical Twilight 5:46 AM PST 6:28 PM PST
Moon No Moon Rise 11:55 AM PST (12/25)
Length of Visible Light 10h 32m
Length of Day
9h 33m
Waning Gibbous, 47% of the Moon is Illuminated
Dec 25
Waning Gibbous
Jan 1
New
Jan 7
First Quarter
Jan 15
Full
Jan 23
Last Quarter

Hourly Weather History & Observations

Time (PST) Temp. Windchill Dew Point Humidity Pressure Visibility Wind Dir Wind Speed Gust Speed Precip Events Conditions
12:53 AM 42.1 °F 39.2 °F 33.1 °F 70% 30.26 in 10.0 mi ENE 4.6 mph - N/A   Clear
1:53 AM 39.9 °F 37.8 °F 32.0 °F 73% 30.27 in 10.0 mi ENE 3.5 mph - N/A   Clear
2:53 AM 41.0 °F 39.0 °F 32.0 °F 70% 30.26 in 10.0 mi North 3.5 mph - N/A   Clear
3:53 AM 39.0 °F - 30.9 °F 73% 30.25 in 10.0 mi Calm Calm - N/A   Clear
4:53 AM 39.9 °F - 33.1 °F 77% 30.25 in 10.0 mi Calm Calm - N/A   Clear
5:53 AM 39.0 °F - 33.1 °F 79% 30.25 in 10.0 mi Calm Calm - N/A   Clear
6:53 AM 37.0 °F - 32.0 °F 82% 30.27 in 10.0 mi Calm Calm - N/A   Clear
7:53 AM 37.9 °F - 33.1 °F 83% 30.28 in 10.0 mi Calm Calm - N/A   Clear
8:53 AM 44.1 °F - 37.0 °F 76% 30.29 in 10.0 mi Calm Calm - N/A   Clear
9:53 AM 48.0 °F - 37.9 °F 68% 30.31 in 10.0 mi Calm Calm - N/A   Clear
10:53 AM 60.1 °F - 39.0 °F 46% 30.30 in 8.0 mi NE 12.7 mph - N/A   Clear
11:53 AM 62.1 °F - 37.9 °F 41% 30.27 in 7.0 mi NE 12.7 mph - N/A   Clear
12:53 PM 63.0 °F - 37.9 °F 40% 30.24 in 8.0 mi NE 13.8 mph - N/A   Clear
1:53 PM 64.0 °F - 39.0 °F 40% 30.22 in 7.0 mi NE 15.0 mph - N/A   Clear
2:53 PM 64.0 °F - 39.0 °F 40% 30.21 in 8.0 mi ENE 10.4 mph - N/A   Clear
3:53 PM 62.1 °F - 39.0 °F 43% 30.21 in 8.0 mi ENE 10.4 mph - N/A   Clear
4:53 PM 57.0 °F - 39.0 °F 51% 30.22 in 7.0 mi ENE 8.1 mph - N/A   Clear
5:53 PM 53.1 °F - 37.9 °F 57% 30.23 in 7.0 mi ENE 4.6 mph - N/A   Clear
6:53 PM 51.1 °F - 37.9 °F 61% 30.24 in 7.0 mi Calm Calm - N/A   Clear
7:53 PM 48.0 °F - 37.0 °F 66% 30.25 in 7.0 mi ENE 3.5 mph - N/A   Clear
8:53 PM 46.0 °F - 34.0 °F 63% 30.25 in 10.0 mi Calm Calm - N/A   Clear
9:53 PM 44.1 °F 42.5 °F 36.0 °F 73% 30.26 in 6.0 mi South 3.5 mph - N/A   Haze
10:53 PM 43.0 °F - 34.0 °F 71% 30.27 in 8.0 mi Calm Calm - N/A   Clear
11:53 PM 42.1 °F - 35.1 °F 76% 30.25 in 6.0 mi Calm Calm - N/A   Haze